Time,TemperatureF,DewpointF,PressureIn,WindDirection,WindDirectionDegrees,WindSpeedMPH,WindSpeedGustMPH,Humidity,HourlyPrecipIn,Conditions,Clouds,dailyrainin,SoftwareType,DateUTC
2013-01-13 00:04:00,21.3,16.0,29.95,WNW,290,6.0,14.0,80,0.00,,,0.00,weatherlink.com 1.10,2013-01-13 06:04:00,
2013-01-13 00:19:00,20.9,16.0,29.94,NNW,340,9.0,15.0,81,0.00,,,0.00,weatherlink.com 1.10,2013-01-13 06:19:00,
2013-01-13 00:34:00,20.7,16.0,29.94,NW,318,7.0,10.0,82,0.00,,,0.00,weatherlink.com 1.10,2013-01-13 06:34:00,
2013-01-13 00:49:00,20.3,15.0,29.95,NW,322,3.0,12.0,80,0.00,,,0.00,weatherlink.com 1.10,2013-01-13 06:49:00,
2013-01-13 01:04:00,19.9,14.0,29.93,NW,308,5.0,15.0,79,0.00,,,0.00,weatherlink.com 1.10,2013-01-13 07:04:00,
2013-01-13 01:19:00,19.5,15.0,29.91,NNW,327,7.0,11.0,81,0.00,,,0.00,weatherlink.com 1.10,2013-01-13 07:19:00,
2013-01-13 01:34:00,19.2,14.0,29.95,WNW,289,8.0,9.0,81,0.00,,,0.00,weatherlink.com 1.10,2013-01-13 07:34:00,
2013-01-13 01:49:00,19.3,14.0,29.94,NW,305,6.0,12.0,81,0.00,,,0.00,weatherlink.com 1.10,2013-01-13 07:49:00,
2013-01-13 02:04:00,19.1,14.0,29.95,NW,322,4.0,14.0,80,0.00,,,0.00,weatherlink.com 1.10,2013-01-13 08:04:00,
2013-01-13 02:19:00,18.8,14.0,29.95,NNW,329,7.0,13.0,81,0.00,,,0.00,weatherlink.com 1.10,2013-01-13 08:19:00,
2013-01-13 02:35:00,18.6,14.0,29.97,WSW,252,0.0,11.0,82,0.00,,,0.00,weatherlink.com 1.10,2013-01-13 08:35:00,
2013-01-13 02:50:00,18.7,14.0,29.98,NW,319,5.0,7.0,82,0.00,,,0.00,weatherlink.com 1.10,2013-01-13 08:50:00,
2013-01-13 03:05:00,18.2,13.0,29.98,WNW,294,7.0,13.0,81,0.00,,,0.00,weatherlink.com 1.10,2013-01-13 09:05:00,
2013-01-13 03:20:00,17.7,13.0,29.96,North,356,7.0,13.0,81,0.00,,,0.00,weatherlink.com 1.10,2013-01-13 09:20:00,
2013-01-13 03:35:00,17.3,12.0,29.96,NNW,333,2.0,11.0,81,0.00,,,0.00,weatherlink.com 1.10,2013-01-13 09:35:00,
2013-01-13 03:50:00,17.0,13.0,29.99,NW,318,3.0,8.0,83,0.00,,,0.00,weatherlink.com 1.10,2013-01-13 09:50:00,
2013-01-13 04:05:00,16.7,12.0,29.98,WNW,297,4.0,8.0,83,0.00,,,0.00,weatherlink.com 1.10,2013-01-13 10:05:00,
2013-01-13 04:20:00,16.4,12.0,29.97,WNW,295,4.0,9.0,83,0.00,,,0.00,weatherlink.com 1.10,2013-01-13 10:20:00,
2013-01-13 04:35:00,16.2,12.0,29.98,WNW,290,2.0,8.0,83,0.00,,,0.00,weatherlink.com 1.10,2013-01-13 10:35:00,
2013-01-13 04:50:00,16.1,11.0,29.99,West,274,2.0,7.0,81,0.00,,,0.00,weatherlink.com 1.10,2013-01-13 10:50:00,
2013-01-13 05:05:00,16.0,11.0,30.01,North,360,2.0,7.0,82,0.00,,,0.00,weatherlink.com 1.10,2013-01-13 11:05:00,
2013-01-13 05:20:00,15.7,11.0,30.01,NW,321,3.0,6.0,81,0.00,,,0.00,weatherlink.com 1.10,2013-01-13 11:20:00,
2013-01-13 05:35:00,15.3,11.0,30.01,West,275,7.0,7.0,81,0.00,,,0.00,weatherlink.com 1.10,2013-01-13 11:35:00,
2013-01-13 05:50:00,14.9,10.0,30.02,West,262,1.0,6.0,81,0.00,,,0.00,weatherlink.com 1.10,2013-01-13 11:50:00,
2013-01-13 06:05:00,14.8,10.0,30.02,WNW,283,4.0,7.0,80,0.00,,,0.00,weatherlink.com 1.10,2013-01-13 12:05:00,
2013-01-13 06:20:00,14.8,10.0,30.04,WNW,302,3.0,8.0,81,0.00,,,0.00,weatherlink.com 1.10,2013-01-13 12:20:00,
2013-01-13 06:35:00,14.7,10.0,30.03,West,271,2.0,7.0,80,0.00,,,0.00,weatherlink.com 1.10,2013-01-13 12:35:00,
2013-01-13 06:50:00,14.4,9.0,30.03,West,267,2.0,8.0,80,0.00,,,0.00,weatherlink.com 1.10,2013-01-13 12:50:00,
2013-01-13 07:05:00,14.3,9.0,30.04,West,270,1.0,10.0,80,0.00,,,0.00,weatherlink.com 1.10,2013-01-13 13:05:00,
2013-01-13 07:20:00,14.1,9.0,30.05,NNW,347,3.0,9.0,80,0.00,,,0.00,weatherlink.com 1.10,2013-01-13 13:20:00,
2013-01-13 07:35:00,14.0,9.0,30.07,WNW,290,3.0,10.0,81,0.00,,,0.00,weatherlink.com 1.10,2013-01-13 13:35:00,
2013-01-13 07:50:00,13.8,9.0,30.08,WNW,287,3.0,9.0,81,0.00,,,0.00,weatherlink.com 1.10,2013-01-13 13:50:00,
2013-01-13 08:05:00,13.4,9.0,30.07,West,280,3.0,12.0,81,0.00,,,0.00,weatherlink.com 1.10,2013-01-13 14:05:00,
2013-01-13 08:20:00,13.5,9.0,30.09,West,266,11.0,11.0,82,0.00,,,0.00,weatherlink.com 1.10,2013-01-13 14:20:00,
2013-01-13 08:35:00,13.4,9.0,30.09,West,281,5.0,11.0,82,0.00,,,0.00,weatherlink.com 1.10,2013-01-13 14:35:00,
2013-01-13 08:50:00,13.6,9.0,30.09,West,265,2.0,9.0,83,0.00,,,0.00,weatherlink.com 1.10,2013-01-13 14:50:00,
2013-01-13 09:05:00,13.6,9.0,30.08,West,262,4.0,9.0,83,0.00,,,0.00,weatherlink.com 1.10,2013-01-13 15:05:00,
2013-01-13 09:20:00,13.7,9.0,30.08,WNW,290,0.0,9.0,81,0.00,,,0.00,weatherlink.com 1.10,2013-01-13 15:20:00,
2013-01-13 09:35:00,13.8,9.0,30.08,WNW,300,14.0,14.0,81,0.00,,,0.00,weatherlink.com 1.10,2013-01-13 15:35:00,
2013-01-13 09:50:00,13.8,9.0,30.07,NW,311,5.0,11.0,81,0.00,,,0.00,weatherlink.com 1.10,2013-01-13 15:50:00,
2013-01-13 10:05:00,13.7,9.0,30.07,NW,310,5.0,12.0,80,0.00,,,0.00,weatherlink.com 1.10,2013-01-13 16:05:00,
2013-01-13 10:20:00,13.8,9.0,30.07,WNW,300,2.0,9.0,80,0.00,,,0.00,weatherlink.com 1.10,2013-01-13 16:20:00,
2013-01-13 10:35:00,14.6,10.0,30.08,West,280,7.0,15.0,81,0.00,,,0.00,weatherlink.com 1.10,2013-01-13 16:35:00,
2013-01-13 10:51:00,14.5,10.0,30.08,West,277,5.0,11.0,81,0.00,,,0.00,weatherlink.com 1.10,2013-01-13 16:51:00,
2013-01-13 11:06:00,14.0,8.0,30.07,WNW,287,4.0,11.0,78,0.00,,,0.00,weatherlink.com 1.10,2013-01-13 17:06:00,
2013-01-13 11:23:00,14.2,9.0,30.07,WNW,289,4.0,11.0,78,0.00,,,0.00,weatherlink.com 1.10,2013-01-13 17:23:00,
2013-01-13 11:36:00,14.5,8.0,30.06,West,271,4.0,11.0,76,0.00,,,0.00,weatherlink.com 1.10,2013-01-13 17:36:00,
2013-01-13 11:51:00,15.1,9.0,30.06,West,280,10.0,12.0,77,0.00,,,0.00,weatherlink.com 1.10,2013-01-13 17:51:00,
2013-01-13 12:06:00,15.5,10.0,30.07,WSW,252,8.0,11.0,78,0.00,,,0.00,weatherlink.com 1.10,2013-01-13 18:06:00,
2013-01-13 12:21:00,15.7,9.0,30.07,West,281,3.0,12.0,76,0.00,,,0.00,weatherlink.com 1.10,2013-01-13 18:21:00,
2013-01-13 12:36:00,16.9,11.0,30.06,WSW,258,8.0,13.0,76,0.00,,,0.00,weatherlink.com 1.10,2013-01-13 18:36:00,
2013-01-13 12:51:00,16.4,10.0,30.06,West,281,6.0,16.0,77,0.00,,,0.00,weatherlink.com 1.10,2013-01-13 18:51:00,
2013-01-13 13:06:00,16.5,9.0,30.05,West,264,9.0,19.0,73,0.00,,,0.00,weatherlink.com 1.10,2013-01-13 19:06:00,
2013-01-13 13:21:00,16.8,10.0,30.05,WNW,298,2.0,15.0,74,0.00,,,0.00,weatherlink.com 1.10,2013-01-13 19:21:00,
2013-01-13 13:36:00,16.0,9.0,30.05,West,271,12.0,17.0,74,0.00,,,0.00,weatherlink.com 1.10,2013-01-13 19:36:00,
2013-01-13 13:51:00,15.9,9.0,30.04,West,281,6.0,17.0,73,0.00,,,0.00,weatherlink.com 1.10,2013-01-13 19:51:00,
2013-01-13 14:06:00,16.0,9.0,30.05,West,278,8.0,18.0,73,0.00,,,0.00,weatherlink.com 1.10,2013-01-13 20:06:00,
2013-01-13 14:21:00,15.7,9.0,30.06,West,281,7.0,19.0,74,0.00,,,0.00,weatherlink.com 1.10,2013-01-13 20:21:00,
2013-01-13 14:36:00,15.8,9.0,30.06,West,264,2.0,15.0,74,0.00,,,0.00,weatherlink.com 1.10,2013-01-13 20:36:00,
2013-01-13 14:51:00,15.6,9.0,30.08,WNW,299,7.0,17.0,74,0.00,,,0.00,weatherlink.com 1.10,2013-01-13 20:51:00,
2013-01-13 15:06:00,15.0,8.0,30.09,West,267,10.0,17.0,75,0.00,,,0.00,weatherlink.com 1.10,2013-01-13 21:06:00,
2013-01-13 15:21:00,15.2,9.0,30.10,West,263,8.0,13.0,75,0.00,,,0.00,weatherlink.com 1.10,2013-01-13 21:21:00,
2013-01-13 15:36:00,16.1,10.0,30.10,West,265,11.0,13.0,75,0.00,,,0.00,weatherlink.com 1.10,2013-01-13 21:36:00,
2013-01-13 15:51:00,15.6,8.0,30.11,WNW,290,8.0,16.0,73,0.00,,,0.00,weatherlink.com 1.10,2013-01-13 21:51:00,
2013-01-13 16:06:00,15.0,8.0,30.12,WSW,245,6.0,13.0,75,0.00,,,0.00,weatherlink.com 1.10,2013-01-13 22:06:00,
2013-01-13 16:21:00,15.3,9.0,30.12,WNW,284,8.0,11.0,75,0.00,,,0.00,weatherlink.com 1.10,2013-01-13 22:21:00,
2013-01-13 16:36:00,14.5,8.0,30.13,WSW,255,6.0,17.0,75,0.00,,,0.00,weatherlink.com 1.10,2013-01-13 22:36:00,
2013-01-13 16:51:00,14.4,8.0,30.14,WNW,289,11.0,20.0,76,0.00,,,0.00,weatherlink.com 1.10,2013-01-13 22:51:00,
2013-01-13 17:21:00,14.3,8.0,30.16,WSW,254,15.0,18.0,76,0.00,,,0.00,weatherlink.com 1.10,2013-01-13 23:21:00,
2013-01-13 17:36:00,14.1,8.0,30.16,West,265,11.0,16.0,75,0.00,,,0.00,weatherlink.com 1.10,2013-01-13 23:36:00,
2013-01-13 17:51:00,13.8,8.0,30.17,West,264,10.0,15.0,76,0.00,,,0.00,weatherlink.com 1.10,2013-01-13 23:51:00,
2013-01-13 18:06:00,13.6,7.0,30.18,West,276,11.0,17.0,76,0.00,,,0.00,weatherlink.com 1.10,2013-01-14 00:06:00,
2013-01-13 18:21:00,13.5,8.0,30.18,West,269,3.0,13.0,77,0.00,,,0.00,weatherlink.com 1.10,2013-01-14 00:21:00,
2013-01-13 18:37:00,13.4,8.0,30.18,West,266,11.0,13.0,78,0.00,,,0.00,weatherlink.com 1.10,2013-01-14 00:37:00,
2013-01-13 18:52:00,13.4,8.0,30.19,West,271,4.0,17.0,78,0.00,,,0.00,weatherlink.com 1.10,2013-01-14 00:52:00,
2013-01-13 19:07:00,13.3,7.0,30.19,West,261,7.0,16.0,77,0.00,,,0.00,weatherlink.com 1.10,2013-01-14 01:07:00,
2013-01-13 19:22:00,13.0,7.0,30.20,West,264,7.0,11.0,77,0.00,,,0.00,weatherlink.com 1.10,2013-01-14 01:22:00,
2013-01-13 19:37:00,12.9,7.0,30.20,WNW,289,8.0,13.0,77,0.00,,,0.00,weatherlink.com 1.10,2013-01-14 01:37:00,
2013-01-13 19:52:00,12.8,7.0,30.21,NW,305,8.0,13.0,78,0.00,,,0.00,weatherlink.com 1.10,2013-01-14 01:52:00,
2013-01-13 20:07:00,12.5,7.0,30.21,WNW,287,3.0,13.0,79,0.00,,,0.00,weatherlink.com 1.10,2013-01-14 02:07:00,
2013-01-13 20:22:00,12.2,7.0,30.21,WNW,295,3.0,12.0,79,0.00,,,0.00,weatherlink.com 1.10,2013-01-14 02:22:00,
2013-01-13 20:37:00,12.1,7.0,30.23,West,265,9.0,17.0,78,0.00,,,0.00,weatherlink.com 1.10,2013-01-14 02:37:00,
2013-01-13 20:52:00,11.9,7.0,30.23,West,274,6.0,11.0,79,0.00,,,0.00,weatherlink.com 1.10,2013-01-14 02:52:00,
2013-01-13 21:07:00,11.9,7.0,30.24,WSW,238,6.0,11.0,80,0.00,,,0.00,weatherlink.com 1.10,2013-01-14 03:07:00,
2013-01-13 21:22:00,11.7,7.0,30.23,West,273,6.0,11.0,80,0.00,,,0.00,weatherlink.com 1.10,2013-01-14 03:22:00,
2013-01-13 21:38:00,11.5,7.0,30.23,WNW,292,4.0,10.0,81,0.00,,,0.00,weatherlink.com 1.10,2013-01-14 03:38:00,
2013-01-13 21:52:00,11.4,7.0,30.23,WNW,289,6.0,13.0,81,0.00,,,0.00,weatherlink.com 1.10,2013-01-14 03:52:00,
2013-01-13 22:08:00,11.2,7.0,30.24,NNW,328,2.0,11.0,82,0.00,,,0.00,weatherlink.com 1.10,2013-01-14 04:08:00,
2013-01-13 22:23:00,11.1,7.0,30.24,WSW,255,6.0,8.0,82,0.00,,,0.00,weatherlink.com 1.10,2013-01-14 04:23:00,
2013-01-13 22:38:00,11.0,7.0,30.25,West,281,4.0,7.0,83,0.00,,,0.00,weatherlink.com 1.10,2013-01-14 04:38:00,
2013-01-13 22:52:00,10.8,7.0,30.24,West,280,4.0,6.0,83,0.00,,,0.00,weatherlink.com 1.10,2013-01-14 04:52:00,
2013-01-13 23:08:00,10.7,7.0,30.25,NW,314,3.0,7.0,83,0.00,,,0.00,weatherlink.com 1.10,2013-01-14 05:08:00,
2013-01-13 23:23:00,10.6,7.0,30.26,NW,307,4.0,6.0,84,0.00,,,0.00,weatherlink.com 1.10,2013-01-14 05:23:00,
2013-01-13 23:38:00,10.5,7.0,30.27,WSW,256,4.0,7.0,84,0.00,,,0.00,weatherlink.com 1.10,2013-01-14 05:38:00,
2013-01-13 23:53:00,10.5,7.0,30.28,West,280,3.0,8.0,84,0.00,,,0.00,weatherlink.com 1.10,2013-01-14 05:53:00,